FW2270 Weather Reports


Display with metric or nautical units.
time (UTC)temp
F
wind
direction
speed
MPH
gust
MPH
rain 1hr
in
rain 24hr
in
rain mn
in
humidity
%
barometer
mb
20210613072431 59 300 4.0 7.0 0.00 0.00 0.00 94 1014.3
20210613071424 59 293 4.0 7.0 0.00 0.00 0.00 94 1014.4
20210613070422 59 303 2.0 4.0 0.00 0.00 0.00 94 1014.6
20210613065415 59 300 0.0 3.0 0.00 0.00 0.00 94 1014.6
20210613064428 60 298 1.0 5.0 0.00 0.00 0.00 94 1014.6
20210613063425 60 298 1.0 5.0 0.00 0.00 0.00 94 1014.5
20210613062420 60 309 2.0 5.0 0.00 0.00 0.00 94 1014.6
20210613061432 60 282 2.0 6.0 0.00 0.00 0.00 94 1014.6
20210613060424 60 283 2.0 8.0 0.00 0.00 0.00 94 1014.5
20210613055418 60 279 6.0 9.0 0.00 0.00 0.00 94 1014.5
20210613054432 59 260 4.0 9.0 0.00 0.00 0.00 94 1014.6
20210613053426 59 268 4.0 7.0 0.00 0.00 0.00 94 1014.5
20210613052424 59 279 5.0 8.0 0.00 0.00 0.00 94 1014.6
20210613051416 59 261 5.0 7.0 0.00 0.00 0.00 93 1014.5
20210613050429 59 267 4.0 7.0 0.00 0.00 0.00 93 1014.5
20210613045419 60 253 4.0 7.0 0.00 0.00 0.00 92 1014.3
20210613044415 60 275 3.0 8.0 0.00 0.00 0.00 92 1014.3
20210613043428 61 291 5.0 8.0 0.00 0.00 0.00 92 1014.2
20210613042419 61 281 5.0 13.0 0.00 0.00 0.00 92 1014.2
20210613041429 60 312 7.0 12.0 0.00 0.00 0.00 93 1014.1
20210613040424 60 286 5.0 9.0 0.00 0.00 0.00 91 1014.1
20210613035416 61 291 4.0 10.0 0.00 0.00 0.00 91 1014.1
20210613034429 62 259 6.0 15.0 0.00 0.00 0.00 90 1014.0
20210613033427 62 268 6.0 14.0 0.00 0.00 0.00 89 1014.0
20210613032419 63 272 6.0 12.0 0.00 0.00 0.00 87 1014.0
20210613031432 64 248 4.0 7.0 0.00 0.00 0.00 84 1014.1
20210613030427 65 324 3.0 10.0 0.00 0.00 0.00 82 1014.2
20210613025423 66 300 3.0 5.0 0.00 0.00 0.00 81 1014.3
20210613024414 67 293 2.0 12.0 0.00 0.00 0.00 82 1014.4
20210613023429 67 296 6.0 14.0 0.00 0.00 0.00 80 1014.4
20210613022423 67 308 6.0 11.0 0.00 0.00 0.00 80 1014.3
20210613021414 67 310 5.0 14.0 0.00 0.00 0.00 80 1014.4
20210613020428 68 278 5.0 13.0 0.00 0.00 0.00 79 1014.4
20210613015420 69 320 7.0 15.0 0.00 0.00 0.00 77 1014.2
20210613014418 69 272 4.0 13.0 0.00 0.00 0.00 76 1014.2
20210613013430 69 311 5.0 10.0 0.00 0.00 0.00 75 1014.3
20210613012424 70 312 4.0 11.0 0.00 0.00 0.00 75 1014.4
20210613011422 70 282 5.0 11.0 0.00 0.00 0.00 75 1014.4
20210613010415 71 314 6.0 11.0 0.00 0.00 0.00 74 1014.5
20210613005427 70 288 6.0 12.0 0.00 0.00 0.00 74 1014.6
20210613004420 70 261 8.0 14.0 0.00 0.00 0.00 74 1014.6
20210613003418 70 264 6.0 16.0 0.00 0.00 0.00 74 1014.9
20210613002429 70 296 11.0 19.0 0.00 0.00 0.00 74 1014.9
20210613001424 70 265 7.0 12.0 0.00 0.00 0.00 73 1015.1
20210613000421 71 312 7.0 12.0 0.00 0.00 0.00 71 1015.2
20210612235433 70 286 8.0 17.0 0.00 0.00 0.00 73 1015.1
20210612234427 71 284 9.0 16.0 0.00 0.00 0.00 72 1015.2
20210612233419 71 324 6.0 18.0 0.00 0.00 0.00 72 1015.1
20210612232415 71 253 9.0 15.0 0.00 0.00 0.00 72 1015.1
20210612231425 71 260 8.0 16.0 0.00 0.00 0.00 72 1015.0
20210612230417 71 258 8.0 17.0 0.00 0.00 0.00 72 1015.2
20210612225433 72 267 8.0 17.0 0.00 0.00 0.00 71 1015.3
20210612224426 72 318 9.0 15.0 0.00 0.00 0.00 69 1015.4
20210612223421 72 271 7.0 17.0 0.00 0.00 0.00 69 1015.6
20210612222433 73 277 8.0 16.0 0.00 0.00 0.00 69 1015.6
20210612221429 74 263 8.0 16.0 0.00 0.00 0.00 67 1015.6
20210612220423 73 312 10.0 16.0 0.00 0.00 0.00 68 1015.6
20210612215434 73 301 9.0 21.0 0.00 0.00 0.00 69 1015.6
20210612214430 73 264 8.0 12.0 0.00 0.00 0.00 67 1015.7
20210612213422 73 249 7.0 15.0 0.00 0.00 0.00 69 1015.6
20210612212416 73 297 7.0 17.0 0.00 0.00 0.00 70 1015.8
20210612211426 72 317 10.0 18.0 0.00 0.00 0.00 69 1015.8
20210612210421 73 312 10.0 17.0 0.00 0.00 0.00 68 1016.0
20210612205431 73 312 8.0 15.0 0.00 0.00 0.00 69 1016.0
20210612204424 74 310 8.0 15.0 0.00 0.00 0.00 67 1016.0
20210612203422 74 308 8.0 13.0 0.00 0.00 0.00 68 1016.0
20210612202415 73 288 9.0 15.0 0.00 0.00 0.00 67 1016.0
20210612201428 74 273 8.0 15.0 0.00 0.00 0.00 67 1016.0
20210612200420 75 278 9.0 13.0 0.00 0.00 0.00 66 1016.1
20210612195416 76 316 7.0 12.0 0.00 0.00 0.00 65 1016.0
20210612194429 76 272 7.0 12.0 0.00 0.00 0.00 64 1016.1
20210612193422 76 291 7.0 13.0 0.00 0.00 0.00 64 1016.1
20210612192419 76 304 6.0 12.0 0.00 0.00 0.00 65 1016.0
20210612191431 76 303 7.0 10.0 0.00 0.00 0.00 64 1016.0
20210612190421 76 302 6.0 11.0 0.00 0.00 0.00 66 1015.9
20210612185432 76 252 7.0 11.0 0.00 0.00 0.00 65 1016.0
20210612184431 75 280 4.0 10.0 0.00 0.00 0.00 65 1016.0
20210612183427 75 302 5.0 10.0 0.00 0.00 0.00 64 1016.0
20210612182420 75 282 3.0 9.0 0.00 0.00 0.00 65 1016.0
20210612181417 74 282 4.0 9.0 0.00 0.00 0.00 65 1016.0
20210612180430 74 284 3.0 7.0 0.00 0.00 0.00 65 1016.0
20210612175422 75 272 3.0 6.0 0.00 0.00 0.00 65 1015.9
20210612174415 73 278 2.0 5.0 0.00 0.00 0.00 69 1016.0
20210612173432 72 279 4.0 8.0 0.00 0.00 0.00 70 1016.2
20210612102429 59 311 0.0 1.0 0.00 0.00 0.00 92 1017.5
20210612101421 59 311 0.0 1.0 0.00 0.00 0.00 93 1017.6
20210612100434 59 311 0.0 1.0 0.00 0.00 0.00 92 1017.8
20210612095422 59 311 0.0 1.0 0.00 0.00 0.00 92 1017.8
20210612094417 59 311 0.0 1.0 0.00 0.00 0.00 92 1017.9
20210612093430 59 311 1.0 2.0 0.00 0.00 0.00 92 1017.8
20210612092421 59 308 0.0 0.0 0.00 0.00 0.00 92 1017.9
20210612091417 59 309 0.0 1.0 0.00 0.00 0.00 92 1017.8
20210612090430 59 309 0.0 1.0 0.00 0.00 0.00 92 1017.9
20210612085422 59 309 0.0 2.0 0.00 0.00 0.00 92 1017.9
20210612084414 59 317 1.0 3.0 0.00 0.00 0.00 92 1017.9
20210612083432 58 317 1.0 2.0 0.00 0.00 0.00 92 1018.0
20210612082426 58 317 1.0 2.0 0.00 0.00 0.00 92 1018.2
20210612081421 58 317 1.0 3.0 0.00 0.00 0.00 92 1018.2
20210612080419 58 321 1.0 3.0 0.00 0.00 0.00 92 1018.3
20210612075430 58 341 2.0 3.0 0.00 0.00 0.00 91 1018.3
20210612074423 58 324 1.0 2.0 0.00 0.00 0.00 91 1018.4
20210612073416 58 324 1.0 2.0 0.00 0.00 0.00 91 1018.4